JST114 YSSY-YBAS

Flight info

Callsign JST114
Flight time 2h 54m
Altitude 33000
Route KADOM1/34L KADOM A576 AS DCT
Aircraft A320/M-SDE3FGHIRWY/LB1

Departure

Time 2026-04-30 09:38
Airport Sydney Kingsford Smith International Airport (YSSY)

Arrival

Time 2026-04-30 12:32
Airport Alice Springs Airport (YBAS)
Time Latitude Longitude Altitude Speed Heading
2026-04-30 08:58 -33.93863 151.16957 30 ft 0 kts 254°
2026-04-30 09:20 -33.93861 151.16964 30 ft 4 kts 254°
2026-04-30 09:21 -33.93854 151.16995 30 ft 4 kts 254°
2026-04-30 09:21 -33.93848 151.17020 30 ft 4 kts 251°
2026-04-30 09:21 -33.93836 151.17048 30 ft 4 kts 225°
2026-04-30 09:21 -33.93815 151.17065 30 ft 4 kts 187°
2026-04-30 09:22 -33.93790 151.17062 30 ft 4 kts 168°
2026-04-30 09:22 -33.93778 151.17059 30 ft 1 kts 168°
2026-04-30 09:26 -33.93785 151.17061 30 ft 3 kts 168°
2026-04-30 09:26 -33.93826 151.17072 30 ft 9 kts 168°
2026-04-30 09:26 -33.93904 151.17092 30 ft 14 kts 168°
2026-04-30 09:27 -33.93985 151.17134 30 ft 11 kts 101°
2026-04-30 09:27 -33.93991 151.17221 29 ft 11 kts 139°
2026-04-30 09:27 -33.94070 151.17248 29 ft 13 kts 170°
2026-04-30 09:27 -33.94170 151.17275 28 ft 17 kts 167°
2026-04-30 09:28 -33.94293 151.17306 30 ft 19 kts 168°
2026-04-30 09:28 -33.94435 151.17343 30 ft 22 kts 166°
2026-04-30 09:28 -33.94595 151.17386 30 ft 25 kts 168°
2026-04-30 09:28 -33.94770 151.17432 30 ft 27 kts 167°
2026-04-30 09:29 -33.94961 151.17481 29 ft 29 kts 168°
2026-04-30 09:29 -33.95141 151.17528 29 ft 26 kts 169°
2026-04-30 09:29 -33.95314 151.17572 29 ft 26 kts 168°
2026-04-30 09:29 -33.95496 151.17620 30 ft 28 kts 167°
2026-04-30 09:30 -33.95691 151.17672 30 ft 30 kts 167°
2026-04-30 09:30 -33.95901 151.17726 30 ft 32 kts 168°
2026-04-30 09:30 -33.96118 151.17781 30 ft 32 kts 168°
2026-04-30 09:30 -33.96306 151.17830 30 ft 24 kts 168°
2026-04-30 09:31 -33.96416 151.17865 30 ft 13 kts 148°
2026-04-30 09:31 -33.96433 151.17947 30 ft 0 kts 79°
2026-04-30 09:35 -33.96433 151.17952 30 ft 2 kts 79°
2026-04-30 09:35 -33.96427 151.17989 30 ft 7 kts 79°
2026-04-30 09:35 -33.96410 151.18050 30 ft 8 kts 52°
2026-04-30 09:36 -33.96371 151.18051 30 ft 0 kts 348°
2026-04-30 09:36 -33.96370 151.18051 30 ft 1 kts 348°
2026-04-30 09:37 -33.96304 151.18034 29 ft 33 kts 348°
2026-04-30 09:37 -33.95835 151.17912 29 ft 100 kts 347°
2026-04-30 09:37 -33.94979 151.17690 28 ft 149 kts 348°
2026-04-30 09:37 -33.93887 151.17435 423 ft 159 kts 351°
2026-04-30 09:38 -33.92802 151.17151 1080 ft 161 kts 345°
2026-04-30 09:38 -33.91776 151.16585 1724 ft 165 kts 334°
2026-04-30 09:38 -33.90805 151.15689 2049 ft 188 kts 318°
2026-04-30 09:38 -33.89990 151.14348 2390 ft 211 kts 300°
2026-04-30 09:39 -33.89315 151.12660 2686 ft 236 kts 298°
2026-04-30 09:39 -33.88566 151.10786 3137 ft 259 kts 298°
2026-04-30 09:39 -33.87767 151.08801 3919 ft 267 kts 298°
2026-04-30 09:39 -33.86945 151.06763 4678 ft 275 kts 298°
2026-04-30 09:40 -33.86106 151.04696 4929 ft 276 kts 298°
2026-04-30 09:40 -33.85261 151.02626 5003 ft 274 kts 297°
2026-04-30 09:40 -33.84511 151.00528 5010 ft 274 kts 287°
2026-04-30 09:40 -33.84040 150.98310 5012 ft 274 kts 284°
2026-04-30 09:41 -33.83625 150.96066 5010 ft 274 kts 283°
2026-04-30 09:41 -33.83229 150.93825 5011 ft 274 kts 283°
2026-04-30 09:41 -33.82827 150.91554 5446 ft 279 kts 283°
2026-04-30 09:41 -33.82417 150.89282 6451 ft 279 kts 283°
2026-04-30 09:42 -33.81996 150.86989 7345 ft 282 kts 283°
2026-04-30 09:42 -33.81563 150.84671 8185 ft 286 kts 283°
2026-04-30 09:42 -33.81122 150.82324 9026 ft 290 kts 284°
2026-04-30 09:42 -33.80673 150.79946 9840 ft 294 kts 284°
2026-04-30 09:43 -33.80206 150.77497 10385 ft 310 kts 284°
2026-04-30 09:43 -33.79715 150.74917 10749 ft 328 kts 284°
2026-04-30 09:43 -33.79193 150.72180 11155 ft 341 kts 284°
2026-04-30 09:43 -33.78666 150.69411 11822 ft 345 kts 284°
2026-04-30 09:44 -33.78123 150.66549 12554 ft 348 kts 284°
2026-04-30 09:44 -33.77581 150.63703 13282 ft 351 kts 284°
2026-04-30 09:44 -33.77044 150.60880 13994 ft 353 kts 284°
2026-04-30 09:44 -33.76492 150.57993 14639 ft 356 kts 284°
2026-04-30 09:45 -33.75932 150.55080 15240 ft 359 kts 284°
2026-04-30 09:45 -33.75364 150.52139 15793 ft 363 kts 284°
2026-04-30 09:45 -33.74790 150.49172 16377 ft 367 kts 283°
2026-04-30 09:45 -33.74212 150.46173 16955 ft 370 kts 283°
2026-04-30 09:46 -33.73628 150.43142 17495 ft 375 kts 283°
2026-04-30 09:46 -33.73036 150.40076 18071 ft 378 kts 283°
2026-04-30 09:46 -33.72433 150.36977 18604 ft 383 kts 284°
2026-04-30 09:46 -33.71822 150.33841 19102 ft 388 kts 283°
2026-04-30 09:47 -33.71210 150.30675 19621 ft 391 kts 284°
2026-04-30 09:47 -33.70516 150.27519 20172 ft 393 kts 286°
2026-04-30 09:47 -33.69709 150.24370 20722 ft 395 kts 288°
2026-04-30 09:47 -33.68834 150.21227 21191 ft 399 kts 289°
2026-04-30 09:48 -33.67922 150.18055 21673 ft 402 kts 289°
2026-04-30 09:48 -33.67011 150.14876 22208 ft 404 kts 289°
2026-04-30 09:48 -33.66108 150.11673 22686 ft 406 kts 288°
2026-04-30 09:48 -33.65216 150.08453 23179 ft 409 kts 288°
2026-04-30 09:49 -33.64321 150.05187 23626 ft 413 kts 288°
2026-04-30 09:49 -33.63428 150.01908 24070 ft 416 kts 288°
2026-04-30 09:49 -33.62526 149.98595 24473 ft 418 kts 288°
2026-04-30 09:49 -33.61624 149.95280 24909 ft 419 kts 288°
2026-04-30 09:50 -33.60717 149.91945 25295 ft 422 kts 287°
2026-04-30 09:50 -33.59801 149.88589 25653 ft 425 kts 288°
2026-04-30 09:50 -33.59189 149.86359 25944 ft 425 kts 288°
2026-04-30 09:50 -33.57946 149.81842 26491 ft 427 kts 288°
2026-04-30 09:51 -33.57328 149.79602 26740 ft 429 kts 288°
2026-04-30 09:51 -33.56068 149.75052 27243 ft 431 kts 288°
2026-04-30 09:51 -33.55442 149.72792 27485 ft 433 kts 288°
2026-04-30 09:51 -33.54167 149.68190 27973 ft 436 kts 288°
2026-04-30 09:52 -33.53531 149.65898 28210 ft 438 kts 287°
2026-04-30 09:52 -33.52568 149.62430 28564 ft 440 kts 287°
2026-04-30 09:52 -33.51598 149.58942 28929 ft 442 kts 288°
2026-04-30 09:52 -33.50624 149.55440 29304 ft 445 kts 287°
2026-04-30 09:53 -33.49322 149.50769 29796 ft 448 kts 288°
2026-04-30 09:53 -33.48654 149.48376 30031 ft 449 kts 287°
2026-04-30 09:53 -33.47666 149.44826 30392 ft 451 kts 288°
2026-04-30 09:53 -33.46343 149.40083 30820 ft 454 kts 287°
2026-04-30 09:54 -33.45665 149.37662 31027 ft 455 kts 287°
2026-04-30 09:54 -33.44669 149.34114 31403 ft 455 kts 288°
2026-04-30 09:54 -33.43663 149.30537 31871 ft 453 kts 287°
2026-04-30 09:54 -33.42662 149.26977 32340 ft 451 kts 287°
2026-04-30 09:55 -33.41666 149.23434 32794 ft 449 kts 287°
2026-04-30 09:55 -33.40673 149.19901 33268 ft 447 kts 287°
2026-04-30 09:55 -33.39683 149.16384 33738 ft 445 kts 287°
2026-04-30 09:55 -33.38696 149.12886 34205 ft 443 kts 287°
2026-04-30 09:56 -33.37706 149.09389 34396 ft 443 kts 288°
2026-04-30 09:56 -33.36719 149.05914 34432 ft 441 kts 288°
2026-04-30 09:56 -33.34762 148.99017 34414 ft 435 kts 287°
2026-04-30 09:57 -33.32817 148.92156 34392 ft 436 kts 287°
2026-04-30 09:57 -33.30867 148.85300 34392 ft 434 kts 287°
2026-04-30 09:58 -33.28912 148.78467 34381 ft 433 kts 288°
2026-04-30 09:58 -33.26966 148.71650 34374 ft 434 kts 288°
2026-04-30 09:59 -33.23058 148.58037 34378 ft 435 kts 288°
2026-04-30 10:00 -33.20098 148.47793 34382 ft 435 kts 288°
2026-04-30 10:01 -33.17138 148.37543 34378 ft 435 kts 288°
2026-04-30 10:02 -33.14164 148.27301 34372 ft 435 kts 288°
2026-04-30 10:02 -33.11549 148.20798 34365 ft 437 kts 301°
2026-04-30 10:03 -33.08242 148.14709 34371 ft 438 kts 301°
2026-04-30 10:03 -33.04934 148.08614 34359 ft 437 kts 301°
2026-04-30 10:04 -33.01626 148.02531 34356 ft 437 kts 301°
2026-04-30 10:04 -32.98316 147.96443 34361 ft 437 kts 301°
2026-04-30 10:05 -32.95029 147.90403 34359 ft 437 kts 302°
2026-04-30 10:05 -32.91717 147.84330 34366 ft 437 kts 302°
2026-04-30 10:06 -32.88385 147.78227 34368 ft 437 kts 302°
2026-04-30 10:06 -32.85097 147.72224 34368 ft 436 kts 302°
2026-04-30 10:07 -32.81778 147.66180 34367 ft 436 kts 302°
2026-04-30 10:07 -32.78465 147.60148 34378 ft 435 kts 302°
2026-04-30 10:08 -32.75157 147.54134 34380 ft 434 kts 302°
2026-04-30 10:08 -32.71855 147.48143 34379 ft 433 kts 302°
2026-04-30 10:09 -32.68549 147.42161 34375 ft 433 kts 302°
2026-04-30 10:09 -32.65250 147.36197 34374 ft 432 kts 302°
2026-04-30 10:10 -32.61959 147.30250 34376 ft 430 kts 302°
2026-04-30 10:10 -32.58674 147.24327 34374 ft 429 kts 302°
2026-04-30 10:11 -32.55392 147.18418 34370 ft 429 kts 302°
2026-04-30 10:11 -32.52126 147.12558 34366 ft 428 kts 302°
2026-04-30 10:12 -32.48827 147.06638 34371 ft 427 kts 303°
2026-04-30 10:12 -32.45553 147.00781 34373 ft 426 kts 303°
2026-04-30 10:13 -32.42304 146.94985 34371 ft 425 kts 303°
2026-04-30 10:13 -32.39048 146.89154 34369 ft 425 kts 303°
2026-04-30 10:14 -32.35785 146.83329 34368 ft 425 kts 303°
2026-04-30 10:14 -32.30878 146.74594 34357 ft 425 kts 303°
2026-04-30 10:15 -32.27604 146.68783 34356 ft 425 kts 303°
2026-04-30 10:15 -32.24329 146.62968 34354 ft 425 kts 303°
2026-04-30 10:16 -32.21055 146.57158 34354 ft 425 kts 303°
2026-04-30 10:17 -32.16124 146.48460 34351 ft 425 kts 303°
2026-04-30 10:17 -32.11210 146.39791 34353 ft 425 kts 303°
2026-04-30 10:18 -32.07916 146.33989 34348 ft 426 kts 303°
2026-04-30 10:19 -32.02972 146.25301 34363 ft 425 kts 304°
2026-04-30 10:19 -31.99672 146.19516 34357 ft 425 kts 304°
2026-04-30 10:20 -31.96365 146.13730 34357 ft 425 kts 304°
2026-04-30 10:20 -31.91417 146.05074 34352 ft 425 kts 304°
2026-04-30 10:21 -31.88114 145.99318 34352 ft 424 kts 304°
2026-04-30 10:21 -31.84811 145.93567 34350 ft 424 kts 304°
2026-04-30 10:22 -31.81531 145.87862 34338 ft 423 kts 304°
2026-04-30 10:22 -31.78229 145.82134 34337 ft 423 kts 304°
2026-04-30 10:23 -31.74928 145.76411 34345 ft 423 kts 304°
2026-04-30 10:23 -31.71622 145.70680 34341 ft 424 kts 304°
2026-04-30 10:24 -31.68310 145.64958 34334 ft 424 kts 304°
2026-04-30 10:24 -31.64991 145.59227 34334 ft 424 kts 304°
2026-04-30 10:25 -31.61673 145.53502 34327 ft 424 kts 304°
2026-04-30 10:25 -31.58345 145.47785 34330 ft 424 kts 304°
2026-04-30 10:26 -31.55016 145.42066 34342 ft 424 kts 304°
2026-04-30 10:26 -31.51697 145.36365 34334 ft 424 kts 304°
2026-04-30 10:27 -31.48369 145.30659 34333 ft 424 kts 304°
2026-04-30 10:27 -31.45051 145.25001 34327 ft 424 kts 305°
2026-04-30 10:28 -31.41723 145.19322 34330 ft 423 kts 305°
2026-04-30 10:28 -31.38397 145.13634 34326 ft 423 kts 304°
2026-04-30 10:29 -31.35076 145.07954 34322 ft 423 kts 305°
2026-04-30 10:29 -31.31740 145.02286 34325 ft 423 kts 305°
2026-04-30 10:30 -31.28402 144.96627 34337 ft 422 kts 305°
2026-04-30 10:30 -31.25071 144.90982 34326 ft 422 kts 305°
2026-04-30 10:31 -31.21744 144.85346 34323 ft 421 kts 305°
2026-04-30 10:31 -31.18411 144.79714 34321 ft 421 kts 305°
2026-04-30 10:32 -31.15082 144.74085 34330 ft 421 kts 306°
2026-04-30 10:32 -31.11772 144.68486 34290 ft 423 kts 306°
2026-04-30 10:33 -31.08417 144.62839 34285 ft 424 kts 306°
2026-04-30 10:33 -31.05046 144.57176 34287 ft 425 kts 306°
2026-04-30 10:34 -31.01672 144.51513 34291 ft 426 kts 306°
2026-04-30 10:34 -30.98289 144.45856 34315 ft 425 kts 306°
2026-04-30 10:35 -30.94916 144.40202 34310 ft 424 kts 306°
2026-04-30 10:35 -30.91551 144.34568 34312 ft 423 kts 306°
2026-04-30 10:36 -30.88181 144.28945 34307 ft 423 kts 306°
2026-04-30 10:36 -30.84803 144.23333 34311 ft 423 kts 305°
2026-04-30 10:37 -30.81444 144.17737 34318 ft 421 kts 304°
2026-04-30 10:37 -30.78086 144.12164 34302 ft 420 kts 305°
2026-04-30 10:38 -30.74738 144.06593 34311 ft 420 kts 304°
2026-04-30 10:38 -30.71386 144.01025 34301 ft 420 kts 305°
2026-04-30 10:39 -30.68029 143.95478 34298 ft 420 kts 305°
2026-04-30 10:39 -30.64693 143.89967 34294 ft 420 kts 304°
2026-04-30 10:40 -30.61320 143.84385 34297 ft 419 kts 304°
2026-04-30 10:40 -30.57990 143.78891 34291 ft 419 kts 304°
2026-04-30 10:41 -30.54630 143.73365 34294 ft 419 kts 303°
2026-04-30 10:41 -30.51272 143.67849 34290 ft 419 kts 303°
2026-04-30 10:42 -30.47905 143.62335 34299 ft 418 kts 303°
2026-04-30 10:42 -30.44547 143.56830 34297 ft 418 kts 303°
2026-04-30 10:43 -30.41188 143.51330 34286 ft 418 kts 303°
2026-04-30 10:43 -30.37834 143.45840 34288 ft 417 kts 302°
2026-04-30 10:44 -30.34480 143.40361 34281 ft 417 kts 302°
2026-04-30 10:44 -30.31115 143.34889 34286 ft 417 kts 302°
2026-04-30 10:45 -30.27751 143.29421 34289 ft 417 kts 302°
2026-04-30 10:45 -30.24410 143.23977 34274 ft 417 kts 302°
2026-04-30 10:46 -30.21056 143.18519 34290 ft 416 kts 302°
2026-04-30 10:46 -30.17691 143.13062 34292 ft 416 kts 302°
2026-04-30 10:47 -30.14334 143.07625 34286 ft 416 kts 302°
2026-04-30 10:47 -30.11510 143.03073 34281 ft 416 kts 302°
2026-04-30 10:48 -30.08147 142.97652 34281 ft 415 kts 301°
2026-04-30 10:48 -30.04785 142.92227 34270 ft 415 kts 301°
2026-04-30 10:49 -30.01429 142.86815 34274 ft 415 kts 301°
2026-04-30 10:49 -29.98085 142.81440 34269 ft 415 kts 301°
2026-04-30 10:50 -29.94715 142.76038 34244 ft 415 kts 301°
2026-04-30 10:50 -29.91337 142.70635 34251 ft 415 kts 301°
2026-04-30 10:51 -29.87961 142.65229 34255 ft 415 kts 301°
2026-04-30 10:51 -29.84587 142.59829 34255 ft 415 kts 301°
2026-04-30 10:52 -29.81203 142.54438 34254 ft 415 kts 301°
2026-04-30 10:52 -29.77817 142.49049 34253 ft 415 kts 302°
2026-04-30 10:53 -29.74437 142.43658 34259 ft 415 kts 302°
2026-04-30 10:53 -29.71060 142.38276 34260 ft 415 kts 302°
2026-04-30 10:54 -29.67664 142.32903 34242 ft 415 kts 302°
2026-04-30 10:54 -29.64278 142.27536 34246 ft 415 kts 302°
2026-04-30 10:55 -29.60893 142.22165 34252 ft 415 kts 302°
2026-04-30 10:55 -29.57504 142.16804 34254 ft 415 kts 302°
2026-04-30 10:56 -29.54109 142.11448 34259 ft 415 kts 302°
2026-04-30 10:56 -29.50745 142.06139 34256 ft 415 kts 302°
2026-04-30 10:57 -29.47320 142.00743 34245 ft 415 kts 303°
2026-04-30 10:57 -29.43943 141.95431 34248 ft 415 kts 303°
2026-04-30 10:58 -29.40538 141.90085 34252 ft 415 kts 303°
2026-04-30 10:58 -29.37134 141.84751 34251 ft 415 kts 303°
2026-04-30 10:59 -29.33730 141.79408 34248 ft 415 kts 303°
2026-04-30 10:59 -29.30321 141.74067 34250 ft 415 kts 303°
2026-04-30 11:00 -29.26909 141.68729 34246 ft 415 kts 303°
2026-04-30 11:00 -29.23495 141.63407 34248 ft 415 kts 303°
2026-04-30 11:01 -29.20079 141.58089 34246 ft 415 kts 303°
2026-04-30 11:01 -29.16679 141.52800 34233 ft 415 kts 303°
2026-04-30 11:02 -29.13237 141.47446 34233 ft 415 kts 303°
2026-04-30 11:02 -29.09838 141.42172 34236 ft 415 kts 303°
2026-04-30 11:03 -29.06396 141.36827 34237 ft 415 kts 303°
2026-04-30 11:04 -29.01282 141.28901 34226 ft 415 kts 303°
2026-04-30 11:04 -28.97856 141.23598 34234 ft 415 kts 303°
2026-04-30 11:05 -28.94415 141.18298 34235 ft 415 kts 303°
2026-04-30 11:05 -28.90979 141.13004 34227 ft 415 kts 303°
2026-04-30 11:06 -28.87542 141.07712 34228 ft 415 kts 303°
2026-04-30 11:06 -28.84109 141.02434 34228 ft 414 kts 303°
2026-04-30 11:07 -28.80671 140.97151 34232 ft 414 kts 303°
2026-04-30 11:07 -28.77234 140.91879 34224 ft 414 kts 303°
2026-04-30 11:08 -28.73805 140.86618 34219 ft 414 kts 303°
2026-04-30 11:08 -28.70368 140.81356 34208 ft 414 kts 303°
2026-04-30 11:09 -28.66930 140.76104 34217 ft 413 kts 303°
2026-04-30 11:09 -28.63490 140.70854 34218 ft 413 kts 303°
2026-04-30 11:10 -28.60056 140.65624 34217 ft 413 kts 303°
2026-04-30 11:10 -28.56621 140.60391 34210 ft 413 kts 303°
2026-04-30 11:11 -28.53185 140.55167 34206 ft 413 kts 303°
2026-04-30 11:11 -28.49745 140.49938 34206 ft 413 kts 303°
2026-04-30 11:12 -28.46322 140.44754 34207 ft 413 kts 303°
2026-04-30 11:12 -28.42859 140.39507 34203 ft 412 kts 303°
2026-04-30 11:13 -28.39443 140.34326 34203 ft 412 kts 303°
2026-04-30 11:13 -28.35994 140.29120 34204 ft 412 kts 303°
2026-04-30 11:14 -28.32553 140.23921 34198 ft 412 kts 303°
2026-04-30 11:14 -28.31758 140.22722 34201 ft 412 kts 303°
2026-04-30 11:15 -28.28662 140.18055 34197 ft 412 kts 302°
2026-04-30 11:15 -28.25213 140.12860 34195 ft 412 kts 302°
2026-04-30 11:16 -28.21769 140.07675 34188 ft 412 kts 302°
2026-04-30 11:16 -28.18313 140.02485 34192 ft 412 kts 302°
2026-04-30 11:17 -28.14867 139.97314 34199 ft 411 kts 302°
2026-04-30 11:17 -28.11414 139.92142 34202 ft 411 kts 302°
2026-04-30 11:18 -28.07969 139.86983 34208 ft 411 kts 302°
2026-04-30 11:18 -28.02796 139.79259 34205 ft 410 kts 302°
2026-04-30 11:19 -27.99343 139.74113 34194 ft 410 kts 302°
2026-04-30 11:19 -27.95904 139.68980 34202 ft 410 kts 302°
2026-04-30 11:20 -27.92462 139.63846 34200 ft 409 kts 302°
2026-04-30 11:20 -27.89014 139.58723 34191 ft 409 kts 302°
2026-04-30 11:21 -27.85564 139.53610 34196 ft 409 kts 302°
2026-04-30 11:21 -27.82116 139.48495 34187 ft 408 kts 302°
2026-04-30 11:22 -27.78679 139.43396 34191 ft 408 kts 302°
2026-04-30 11:22 -27.75238 139.38301 34175 ft 407 kts 301°
2026-04-30 11:23 -27.71811 139.33221 34184 ft 407 kts 301°
2026-04-30 11:24 -27.66657 139.25614 34190 ft 406 kts 301°
2026-04-30 11:24 -27.63220 139.20559 34190 ft 406 kts 301°
2026-04-30 11:25 -27.58084 139.13016 34191 ft 406 kts 301°
2026-04-30 11:26 -27.51236 139.02923 34184 ft 405 kts 301°
2026-04-30 11:26 -27.47807 138.97899 34182 ft 405 kts 301°
2026-04-30 11:27 -27.44369 138.92877 34181 ft 405 kts 301°
2026-04-30 11:27 -27.40938 138.87861 34183 ft 405 kts 301°
2026-04-30 11:28 -27.35795 138.80338 34187 ft 404 kts 301°
2026-04-30 11:29 -27.32371 138.75343 34189 ft 403 kts 301°
2026-04-30 11:29 -27.27228 138.67866 34168 ft 403 kts 300°
2026-04-30 11:30 -27.22092 138.60396 34172 ft 402 kts 300°
2026-04-30 11:31 -27.18667 138.55424 34172 ft 403 kts 300°
2026-04-30 11:31 -27.15233 138.50452 34174 ft 403 kts 300°
2026-04-30 11:32 -27.11809 138.45477 34167 ft 403 kts 300°
2026-04-30 11:32 -27.08378 138.40507 34162 ft 403 kts 301°
2026-04-30 11:33 -27.03227 138.33060 34167 ft 403 kts 301°
2026-04-30 11:33 -26.99809 138.28132 34171 ft 403 kts 301°
2026-04-30 11:34 -26.96371 138.23182 34176 ft 403 kts 301°
2026-04-30 11:34 -26.92920 138.18228 34165 ft 403 kts 301°
2026-04-30 11:35 -26.89482 138.13269 34160 ft 403 kts 301°
2026-04-30 11:35 -26.86036 138.08309 34164 ft 404 kts 301°
2026-04-30 11:36 -26.83141 138.04154 34177 ft 404 kts 301°
2026-04-30 11:36 -26.79684 137.99205 34136 ft 404 kts 302°
2026-04-30 11:37 -26.75646 137.93435 34143 ft 406 kts 302°
2026-04-30 11:37 -26.72754 137.89283 34145 ft 407 kts 301°
2026-04-30 11:38 -26.69243 137.84255 34148 ft 408 kts 302°
2026-04-30 11:38 -26.65764 137.79294 34148 ft 408 kts 302°
2026-04-30 11:39 -26.62258 137.74287 34138 ft 410 kts 302°
2026-04-30 11:39 -26.58734 137.69271 34147 ft 411 kts 302°
2026-04-30 11:40 -26.55197 137.64252 34150 ft 411 kts 302°
2026-04-30 11:40 -26.51661 137.59226 34137 ft 412 kts 302°
2026-04-30 11:41 -26.48118 137.54190 34134 ft 413 kts 302°
2026-04-30 11:41 -26.44551 137.49137 34135 ft 415 kts 302°
2026-04-30 11:42 -26.40978 137.44088 34139 ft 415 kts 302°
2026-04-30 11:42 -26.37399 137.39018 34145 ft 416 kts 302°
2026-04-30 11:43 -26.33815 137.33962 34132 ft 416 kts 302°
2026-04-30 11:43 -26.30228 137.28907 34144 ft 416 kts 302°
2026-04-30 11:44 -26.26648 137.23847 34154 ft 416 kts 302°
2026-04-30 11:44 -26.23063 137.18791 34154 ft 416 kts 302°
2026-04-30 11:45 -26.19474 137.13744 34153 ft 416 kts 302°
2026-04-30 11:45 -26.15880 137.08702 34158 ft 416 kts 302°
2026-04-30 11:46 -26.12307 137.03700 34157 ft 415 kts 302°
2026-04-30 11:46 -26.08717 136.98669 34155 ft 415 kts 302°
2026-04-30 11:47 -26.05123 136.93627 34148 ft 415 kts 302°
2026-04-30 11:47 -26.01536 136.88602 34151 ft 415 kts 302°
2026-04-30 11:48 -25.97944 136.83579 34159 ft 415 kts 302°
2026-04-30 11:48 -25.94344 136.78555 34157 ft 415 kts 302°
2026-04-30 11:49 -25.90742 136.73542 34153 ft 414 kts 302°
2026-04-30 11:49 -25.87153 136.68544 34149 ft 414 kts 301°
2026-04-30 11:50 -25.83563 136.63552 34152 ft 413 kts 301°
2026-04-30 11:50 -25.79976 136.58566 34156 ft 412 kts 301°
2026-04-30 11:51 -25.76401 136.53604 34160 ft 412 kts 301°
2026-04-30 11:51 -25.72834 136.48643 34160 ft 411 kts 301°
2026-04-30 11:52 -25.69259 136.43690 34166 ft 411 kts 301°
2026-04-30 11:52 -25.65695 136.38749 34166 ft 410 kts 301°
2026-04-30 11:53 -25.62122 136.33823 34155 ft 410 kts 301°
2026-04-30 11:53 -25.58548 136.28912 34154 ft 409 kts 301°
2026-04-30 11:54 -25.54982 136.24002 34157 ft 409 kts 301°
2026-04-30 11:54 -25.51449 136.19129 34155 ft 409 kts 301°
2026-04-30 11:55 -25.47887 136.14221 34162 ft 408 kts 301°
2026-04-30 11:55 -25.44325 136.09327 34163 ft 408 kts 301°
2026-04-30 11:56 -25.40755 136.04428 34163 ft 408 kts 301°
2026-04-30 11:56 -25.37193 135.99549 34155 ft 408 kts 301°
2026-04-30 11:57 -25.33631 135.94666 34144 ft 408 kts 301°
2026-04-30 11:57 -25.30070 135.89785 34151 ft 407 kts 301°
2026-04-30 11:58 -25.26518 135.84925 34149 ft 407 kts 301°
2026-04-30 11:58 -25.22959 135.80062 34152 ft 407 kts 301°
2026-04-30 11:59 -25.19399 135.75201 34144 ft 406 kts 301°
2026-04-30 11:59 -25.15846 135.70353 34142 ft 406 kts 301°
2026-04-30 12:00 -25.12313 135.65552 34143 ft 406 kts 301°
2026-04-30 12:00 -25.08758 135.60711 34147 ft 406 kts 301°
2026-04-30 12:01 -25.05199 135.55879 34142 ft 406 kts 301°
2026-04-30 12:01 -25.01646 135.51051 34147 ft 405 kts 301°
2026-04-30 12:02 -24.98086 135.46223 34148 ft 405 kts 301°
2026-04-30 12:02 -24.94529 135.41407 34137 ft 405 kts 301°
2026-04-30 12:03 -24.89196 135.34182 34137 ft 405 kts 301°
2026-04-30 12:04 -24.85631 135.29365 34145 ft 405 kts 301°
2026-04-30 12:04 -24.83850 135.26963 33980 ft 407 kts 301°
2026-04-30 12:04 -24.82059 135.24550 33515 ft 404 kts 301°
2026-04-30 12:04 -24.80290 135.22169 33040 ft 402 kts 302°
2026-04-30 12:05 -24.78522 135.19789 32530 ft 399 kts 302°
2026-04-30 12:05 -24.76766 135.17431 32040 ft 397 kts 303°
2026-04-30 12:05 -24.75022 135.15090 31553 ft 395 kts 303°
2026-04-30 12:05 -24.73288 135.12757 31072 ft 393 kts 303°
2026-04-30 12:06 -24.71570 135.10439 30604 ft 391 kts 303°
2026-04-30 12:06 -24.69854 135.08121 30131 ft 389 kts 304°
2026-04-30 12:06 -24.68173 135.05852 29595 ft 387 kts 304°
2026-04-30 12:06 -24.66473 135.03568 29062 ft 385 kts 304°
2026-04-30 12:07 -24.64776 135.01297 28539 ft 383 kts 304°
2026-04-30 12:07 -24.63089 134.99041 28023 ft 381 kts 304°
2026-04-30 12:07 -24.61415 134.96797 27517 ft 380 kts 304°
2026-04-30 12:07 -24.59744 134.94557 27028 ft 378 kts 304°
2026-04-30 12:08 -24.58082 134.92329 26528 ft 377 kts 304°
2026-04-30 12:08 -24.56428 134.90107 26052 ft 375 kts 304°
2026-04-30 12:08 -24.54771 134.87883 25573 ft 374 kts 305°
2026-04-30 12:08 -24.53123 134.85675 25113 ft 373 kts 305°
2026-04-30 12:09 -24.51481 134.83477 24664 ft 372 kts 305°
2026-04-30 12:09 -24.49846 134.81289 24215 ft 370 kts 305°
2026-04-30 12:09 -24.48214 134.79105 23776 ft 368 kts 306°
2026-04-30 12:09 -24.46593 134.76938 23269 ft 366 kts 306°
2026-04-30 12:10 -24.44992 134.74802 22975 ft 358 kts 306°
2026-04-30 12:10 -24.43423 134.72712 22712 ft 353 kts 306°
2026-04-30 12:10 -24.41865 134.70633 22457 ft 351 kts 306°
2026-04-30 12:10 -24.40318 134.68572 22205 ft 349 kts 306°
2026-04-30 12:11 -24.38780 134.66521 21959 ft 348 kts 306°
2026-04-30 12:11 -24.37245 134.64473 21711 ft 347 kts 306°
2026-04-30 12:11 -24.35714 134.62433 21462 ft 346 kts 306°
2026-04-30 12:11 -24.34185 134.60395 21209 ft 345 kts 306°
2026-04-30 12:12 -24.32664 134.58370 20982 ft 344 kts 306°
2026-04-30 12:12 -24.31143 134.56344 20739 ft 343 kts 306°
2026-04-30 12:12 -24.29629 134.54329 20498 ft 342 kts 306°
2026-04-30 12:12 -24.28118 134.52320 20257 ft 341 kts 307°
2026-04-30 12:13 -24.26611 134.50318 20019 ft 340 kts 307°
2026-04-30 12:13 -24.25112 134.48325 19784 ft 339 kts 307°
2026-04-30 12:13 -24.23612 134.46330 19552 ft 338 kts 307°
2026-04-30 12:13 -24.22120 134.44350 19325 ft 337 kts 307°
2026-04-30 12:14 -24.20648 134.42395 19107 ft 336 kts 307°
2026-04-30 12:14 -24.19158 134.40421 18877 ft 336 kts 307°
2026-04-30 12:14 -24.17672 134.38450 18654 ft 335 kts 307°
2026-04-30 12:14 -24.16190 134.36491 18430 ft 334 kts 307°
2026-04-30 12:15 -24.14689 134.34509 18175 ft 333 kts 307°
2026-04-30 12:15 -24.13236 134.32585 17913 ft 332 kts 307°
2026-04-30 12:15 -24.11768 134.30641 17658 ft 331 kts 307°
2026-04-30 12:15 -24.10304 134.28704 17407 ft 329 kts 307°
2026-04-30 12:16 -24.08830 134.26750 17154 ft 328 kts 307°
2026-04-30 12:16 -24.07381 134.24828 16907 ft 327 kts 308°
2026-04-30 12:16 -24.05938 134.22917 16664 ft 325 kts 308°
2026-04-30 12:16 -24.04496 134.21011 16417 ft 324 kts 308°
2026-04-30 12:17 -24.01647 134.17246 15946 ft 322 kts 308°
2026-04-30 12:17 -24.00219 134.15362 15699 ft 321 kts 308°
2026-04-30 12:17 -23.98800 134.13491 15461 ft 320 kts 308°
2026-04-30 12:18 -23.97380 134.11620 15223 ft 318 kts 308°
2026-04-30 12:18 -23.95969 134.09762 14991 ft 317 kts 308°
2026-04-30 12:18 -23.94567 134.07915 14757 ft 315 kts 309°
2026-04-30 12:18 -23.93169 134.06075 14523 ft 314 kts 309°
2026-04-30 12:19 -23.91774 134.04236 14303 ft 313 kts 309°
2026-04-30 12:19 -23.90391 134.02412 14090 ft 312 kts 309°
2026-04-30 12:19 -23.89004 134.00585 13856 ft 311 kts 309°
2026-04-30 12:19 -23.87622 133.98774 13598 ft 310 kts 309°
2026-04-30 12:20 -23.86241 133.96965 13341 ft 310 kts 309°
2026-04-30 12:20 -23.84869 133.95163 13086 ft 305 kts 309°
2026-04-30 12:20 -23.83517 133.93388 12729 ft 303 kts 309°
2026-04-30 12:20 -23.82170 133.91619 12389 ft 301 kts 309°
2026-04-30 12:21 -23.80839 133.89871 11992 ft 300 kts 309°
2026-04-30 12:21 -23.79515 133.88121 11623 ft 299 kts 307°
2026-04-30 12:21 -23.78400 133.86215 11279 ft 297 kts 301°
2026-04-30 12:21 -23.77339 133.84281 10940 ft 296 kts 301°
2026-04-30 12:22 -23.76276 133.82359 10575 ft 296 kts 301°
2026-04-30 12:22 -23.75215 133.80449 10088 ft 293 kts 302°
2026-04-30 12:22 -23.74156 133.78545 9444 ft 291 kts 302°
2026-04-30 12:22 -23.73125 133.76687 9046 ft 280 kts 302°
2026-04-30 12:23 -23.72137 133.74906 8677 ft 270 kts 302°
2026-04-30 12:23 -23.71119 133.73226 8326 ft 261 kts 311°
2026-04-30 12:23 -23.69825 133.71896 7987 ft 259 kts 325°
2026-04-30 12:23 -23.68276 133.70980 7825 ft 244 kts 340°
2026-04-30 12:24 -23.66713 133.70482 7731 ft 227 kts 346°
2026-04-30 12:24 -23.65199 133.70051 7639 ft 224 kts 346°
2026-04-30 12:24 -23.63694 133.69617 7549 ft 224 kts 346°
2026-04-30 12:24 -23.62221 133.69076 7476 ft 224 kts 330°
2026-04-30 12:25 -23.61074 133.67927 7204 ft 229 kts 302°
2026-04-30 12:25 -23.60569 133.66284 6845 ft 234 kts 273°
2026-04-30 12:25 -23.60857 133.64538 6488 ft 237 kts 244°
2026-04-30 12:25 -23.61893 133.63155 6107 ft 239 kts 214°
2026-04-30 12:26 -23.62879 133.62622 5868 ft 240 kts 194°
2026-04-30 12:26 -23.65044 133.62755 5512 ft 232 kts 154°
2026-04-30 12:26 -23.66285 133.63764 5496 ft 219 kts 127°
2026-04-30 12:26 -23.66838 133.64673 5507 ft 218 kts 118°
2026-04-30 12:27 -23.67611 133.66115 5500 ft 217 kts 118°
2026-04-30 12:27 -23.68363 133.67514 5508 ft 212 kts 118°
2026-04-30 12:27 -23.69094 133.68869 5499 ft 205 kts 118°
2026-04-30 12:27 -23.69813 133.70204 5496 ft 204 kts 118°
2026-04-30 12:28 -23.70534 133.71541 5332 ft 203 kts 118°
2026-04-30 12:28 -23.71248 133.72868 5113 ft 203 kts 118°
2026-04-30 12:28 -23.71964 133.74196 4854 ft 203 kts 118°
2026-04-30 12:28 -23.72678 133.75522 4588 ft 203 kts 118°
2026-04-30 12:29 -23.73396 133.76856 4338 ft 202 kts 118°
2026-04-30 12:29 -23.74097 133.78158 4080 ft 196 kts 117°
2026-04-30 12:29 -23.74764 133.79396 3807 ft 183 kts 117°
2026-04-30 12:29 -23.75382 133.80544 3595 ft 167 kts 117°
2026-04-30 12:30 -23.75939 133.81580 3402 ft 153 kts 117°
2026-04-30 12:30 -23.76467 133.82561 3201 ft 147 kts 117°
2026-04-30 12:30 -23.76977 133.83511 3021 ft 143 kts 117°
2026-04-30 12:30 -23.77476 133.84441 2840 ft 141 kts 117°
2026-04-30 12:31 -23.77969 133.85358 2663 ft 140 kts 118°
2026-04-30 12:31 -23.78459 133.86267 2471 ft 138 kts 119°
2026-04-30 12:31 -23.78938 133.87166 2285 ft 137 kts 118°
2026-04-30 12:31 -23.79415 133.88056 2111 ft 136 kts 118°
2026-04-30 12:32 -23.79891 133.88944 1927 ft 135 kts 117°
2026-04-30 12:32 -23.80368 133.89818 1791 ft 125 kts 120°
2026-04-30 12:32 -23.80685 133.90425 1788 ft 66 kts 120°
2026-04-30 12:32 -23.80860 133.90750 1786 ft 41 kts 120°
2026-04-30 12:33 -23.80999 133.91014 1786 ft 39 kts 120°
2026-04-30 12:33 -23.81115 133.91231 1787 ft 31 kts 121°
2026-04-30 12:33 -23.81170 133.91395 1784 ft 17 kts 119°
2026-04-30 12:33 -23.81214 133.91401 1785 ft 3 kts 228°
2026-04-30 12:34 -23.81206 133.91365 1783 ft 8 kts 299°
2026-04-30 12:34 -23.81166 133.91297 1785 ft 14 kts 306°
2026-04-30 12:34 -23.81096 133.91184 1786 ft 22 kts 301°
2026-04-30 12:34 -23.80993 133.91000 1785 ft 34 kts 301°
2026-04-30 12:35 -23.80860 133.90756 1786 ft 39 kts 299°
2026-04-30 12:35 -23.80728 133.90504 1788 ft 37 kts 301°
2026-04-30 12:35 -23.80602 133.90276 1790 ft 30 kts 300°
2026-04-30 12:35 -23.80503 133.90088 1791 ft 28 kts 300°
2026-04-30 12:36 -23.80435 133.90024 1791 ft 7 kts 15°
2026-04-30 12:36 -23.80390 133.90050 1792 ft 8 kts 29°
2026-04-30 12:36 -23.80337 133.90082 1793 ft 9 kts 29°
2026-04-30 12:36 -23.80292 133.90120 1792 ft 8 kts 38°
2026-04-30 12:37 -23.80284 133.90128 1793 ft 0 kts 50°
2026-04-30 12:38 -23.80279 133.90122 1793 ft 0 kts 74°